{"data":{"norad_id":65191,"epoch":"2026-09-20T13:15:12.571776Z","epoch_age_seconds":115661,"freshness":"FRESH","line1":"1 65191U 25175T   26263.55222884  .00016432  00000+0  51012-3 0  9994","line2":"2 65191  97.2844 132.5728 0001929  87.0675 273.0788 15.33449467 62144","mean_motion":15.33449467,"eccentricity":0.0001929,"inclination_deg":97.2844,"raan_deg":132.5728,"arg_perigee_deg":87.0675,"mean_anomaly_deg":273.0788,"bstar":0.00051012,"rev_number":6214,"period_min":93.905931104282,"perigee_km":464.2097405193,"apogee_km":466.85002720309,"semimajor_km":6843.6668838612,"source":"CELESTRAK","updated_at":"2026-09-21T09:00:35.531270Z"}}